User: anonymous   Login
Location: Ash Swamp
(41.5170°N, 74.6157°W)
Time: 18:45:53
(UTC+00:00)
Language:

Cosmos 1975 - Orbit

View from above orbital plane
View from above orbital plane
View from above satellite
View from above satellite

Ground track
Ground track

The orbit data is extracted from the following two-line orbital elements,

1 19573U 88093A   20262.77572378 +.00000732 +00000-0 +49587-4 0  9990
2 19573 082.5167 273.7793 0013419 198.9415 161.1315 15.04924155717547
Epoch (UTC): 18 September 2020 18:37:02
Eccentricity: 0.0013419
inclination: 82.5167°
perigee height: 542 km
apogee height: 561 km
right ascension of ascending node: 273.7793°
argument of perigee: 198.9415°
revolutions per day: 15.04924155
mean anomaly at epoch: 161.1315°
orbit number at epoch: 71754

The dashed part of the orbit path shows where the satellite is in the earth's shadow,  

DLR